Location: Paris
(48.6709°N, 2.3750°E)
Time: 21:43:45
(UTC+02:00)

AO-7 - Visible Passes

Search period start: 29 June 2022 00:00
Search period end: 09 July 2022 00:00
Orbit: 1439 x 1459 km, 101.9° (Epoch: 29 June)

Date Brightness Start Highest point End Pass type
(mag) Time Alt. Az. Time Alt. Az. Time Alt. Az.
30 Jun ? 04:52:17 10° NE 04:58:19 21° E 05:04:19 10° SE visible
02 Jul ? 04:45:31 10° NE 04:51:08 19° E 04:56:42 10° SE visible
04 Jul ? 04:38:49 10° NE 04:43:56 17° E 04:49:01 10° SE visible
06 Jul ? 04:32:12 10° NE 04:36:43 15° E 04:41:14 10° ESE visible
08 Jul ? 04:25:43 10° NE 04:29:30 13° E 04:33:17 10° ESE visible
